Location: Austin
(30.3000°N, 97.7500°W)
Time: 10:54:13
(UTC-05:00)

Helios 1A Rocket - Pass Details

Date: 16 May 2026
Orbit: 399 x 409 km, 98.3° (Epoch: 11 June)

Event Time Altitude Azimuth Distance (km) Brightness Sun altitude
Rises 20:39:14 0° 40° (NE) 2,313 5.9 -4.8°
Reaches altitude 10° 20:42:27 10° 77° (ENE) 1,447 4.5 -5.5°
Drops below altitude 10° 20:44:24 10° 115° (ESE) 1,443 4.3 -5.8°
Enters shadow 20:45:38 - 134° (SE) 1,688 4.7 -6.1°
Exits shadow 21:08:46 -48° 187° (S) 10,045 9.1 -10.5°
Maximum altitude 22:15:12 19° 288° (WNW) 1,011 4.9 -22.2°
